TimeCST,TemperatureF,Dew PointF,Humidity,Sea Level PressureIn,VisibilityMPH,Wind Direction,Wind SpeedMPH,Gust SpeedMPH,PrecipitationIn,Events,Conditions,WindDirDegrees,DateUTC
12:55 AM,49.6,32.9,53,29.87,10.0,NNE,13.8,-,N/A,,Clear,30,2011-11-16 06:55:00
1:55 AM,49.3,32.4,52,29.86,10.0,NNE,20.7,26.5,N/A,,Clear,30,2011-11-16 07:55:00
2:55 AM,47.5,32.2,55,29.87,10.0,NNE,19.6,-,N/A,,Clear,30,2011-11-16 08:55:00
3:55 AM,45.7,32.4,60,29.87,10.0,NNE,19.6,-,N/A,,Clear,30,2011-11-16 09:55:00
4:55 AM,44.2,31.8,62,29.89,10.0,NE,16.1,-,N/A,,Clear,40,2011-11-16 10:55:00
5:55 AM,42.8,31.5,64,29.93,10.0,NE,16.1,24.2,N/A,,Clear,40,2011-11-16 11:55:00
6:55 AM,41.7,30.9,66,29.96,10.0,NE,18.4,-,N/A,,Clear,40,2011-11-16 12:55:00
7:55 AM,41.4,32.2,70,29.99,10.0,NE,18.4,-,N/A,,Clear,40,2011-11-16 13:55:00
8:55 AM,43.7,31.3,62,30.05,10.0,NNE,18.4,-,N/A,,Clear,30,2011-11-16 14:55:00
9:55 AM,46.2,29.8,53,30.09,10.0,NNE,26.5,-,N/A,,Clear,30,2011-11-16 15:55:00
10:55 AM,48.7,29.5,47,30.11,10.0,NNE,25.3,31.1,N/A,,Clear,30,2011-11-16 16:55:00
11:55 AM,50.5,28.6,43,30.12,10.0,NNE,24.2,29.9,N/A,,Partly Cloudy,20,2011-11-16 17:55:00
12:55 PM,50.0,25.3,38,30.12,10.0,NNE,28.8,33.4,N/A,,Partly Cloudy,30,2011-11-16 18:55:00
1:55 PM,52.2,23.7,33,30.12,10.0,NNE,24.2,32.2,N/A,,Clear,20,2011-11-16 19:55:00
2:55 PM,50.5,21.6,32,30.16,10.0,NNE,23.0,31.1,N/A,,Clear,20,2011-11-16 20:55:00
3:55 PM,49.5,20.5,32,30.19,10.0,NNE,25.3,29.9,N/A,,Partly Cloudy,30,2011-11-16 21:55:00
4:55 PM,46.6,20.5,36,30.23,10.0,NNE,21.9,-,N/A,,Clear,30,2011-11-16 22:55:00
5:55 PM,44.1,20.5,39,30.28,10.0,NNE,16.1,-,N/A,,Clear,20,2011-11-16 23:55:00
6:55 PM,42.8,21.2,42,30.33,10.0,NNE,19.6,25.3,N/A,,Clear,20,2011-11-17 00:55:00
7:55 PM,41.0,21.4,46,30.37,10.0,NNE,16.1,25.3,N/A,,Clear,30,2011-11-17 01:55:00
8:55 PM,39.2,26.6,61,30.39,10.0,NNE,19.6,-,N/A,,Clear,20,2011-11-17 02:55:00
9:55 PM,37.6,28.4,69,30.42,10.0,NNE,15.0,-,N/A,,Clear,30,2011-11-17 03:55:00
10:55 PM,35.6,28.9,77,30.45,10.0,North,11.5,-,N/A,,Clear,10,2011-11-17 04:55:00
11:55 PM,34.2,29.3,82,30.45,10.0,North,12.7,-,N/A,,Clear,10,2011-11-17 05:55:00